This is the latest recevied weather packets stored in our database for station/object KH6DH-13. If no packets are shown the sender has not sent any weather packets the latest 10 day(s).
| Time | Temp. | Humidity | Pressure | Rain* | Wind** | Luminosity | Snow |
|---|---|---|---|---|---|---|---|
| 1788219391 | 30.56° C | - | - | 0 mm | 2.24 m/s, 101° | - | - |
| 1788218790 | 30° C | - | - | 0 mm | 1.79 m/s, 27° | - | - |
| 1788218186 | 30° C | - | - | 0 mm | 2.24 m/s, 17° | - | - |
| 1788217585 | 30° C | - | - | 0 mm | 1.79 m/s, 139° | - | - |
| 1788216984 | 30° C | - | - | 0 mm | 1.34 m/s, 51° | - | - |
| 1788216383 | 30° C | - | - | 0 mm | 1.79 m/s, 120° | - | - |
| 1788215782 | 29.44° C | - | - | 0 mm | 2.68 m/s, 1° | - | - |
| 1788215181 | 29.44° C | - | - | 0 mm | 1.34 m/s, 146° | - | - |
| 1788214580 | 28.89° C | - | - | 0 mm | 2.24 m/s, 293° | - | - |
| 1788213979 | 28.89° C | - | - | 0 mm | 2.68 m/s, 59° | - | - |
| 1788213378 | 28.89° C | - | - | 0 mm | 3.58 m/s, 60° | - | - |
| 1788212777 | 28.33° C | - | - | 0 mm | 3.13 m/s, 77° | - | - |
| 1788212176 | 28.89° C | - | - | 0 mm | 1.79 m/s, 48° | - | - |
| 1788211575 | 28.89° C | - | - | 0 mm | 3.13 m/s, 117° | - | - |
| 1788210974 | 28.89° C | - | - | 0 mm | 1.79 m/s, 132° | - | - |
| 1788210386 | 28.89° C | - | - | 0 mm | 2.68 m/s, 323° | - | - |
| 1788209772 | 28.89° C | - | - | 0 mm | 3.13 m/s, 77° | - | - |
| 1788209171 | 27.78° C | - | - | 0 mm | 2.24 m/s, 72° | - | - |
| 1788208570 | 27.78° C | - | - | 0 mm | 2.24 m/s, 108° | - | - |
| 1788207966 | 27.78° C | - | - | 0 mm | 2.68 m/s, 65° | - | - |
| 1788207365 | 27.78° C | - | - | 0 mm | 0.89 m/s, 97° | - | - |
| 1788206764 | 27.78° C | - | - | 0 mm | 2.68 m/s, 34° | - | - |
| 1788206163 | 27.22° C | - | - | 0 mm | 4.02 m/s, 34° | - | - |
| 1788205562 | 27.22° C | - | - | 0 mm | 1.34 m/s, 101° | - | - |
| 1788204961 | 27.22° C | - | - | 0 mm | 2.24 m/s, 307° | - | - |
* Rain latest hour (hover to see other rain measurements)
** Current wind speed in m/s (hover to see current wind gust speed)